User: anonymous   Login
Location: Newark
(48.1500°N, 13.1167°E)
Time: 09:48:58
(UTC+00:00)
Language:

XW-2D - Orbit

View from above orbital plane
View from above orbital plane
View from above satellite
View from above satellite

Ground track
Ground track

The orbit data is extracted from the following two-line orbital elements,

1 40907U 15049J   22277.08854469  .00008650  00000-0  39369-3 0  9995
2 40907  97.4960 279.8059 0011784 344.2826  86.6198 15.20887818389474
Epoch (UTC): 04 October 2022 02:07:30
Eccentricity: 0.0011784
inclination: 97.4960°
perigee height: 495 km
apogee height: 511 km
right ascension of ascending node: 279.8059°
argument of perigee: 344.2826°
revolutions per day: 15.20887818
mean anomaly at epoch: 86.6198°
orbit number at epoch: 38947

The dashed part of the orbit path shows where the satellite is in the earth's shadow,  

DLR